Theta_e
307 309 308 309 311 315 311 311 311 310 310 309 308 307 307 307 304 303 303 303 303 304 303 299 299 299 299 300 302 301 301 299 296 295 295 295 295 295 299 296 297 296 295 295 295 291 288 288 290 292 293 292 294 294 293 292 294 296 294 296 294 294 296
306 309 315 317 312 312 311 310 310 309 309 308 307 307 306 307 308 303 302 302 302 303 303 300 299 299 298 298 298 298 298 299 299 298 295 295 295 294 295 295 294 294 293 294 294 294 290 288 288 288 288 291 292 293 294 292 293 295 295 296 294 294 295
311 308 309 309 309 310 310 309 309 308 308 308 307 306 305 304 304 305 303 303 304 305 304 299 298 298 298 298 298 298 298 298 298 297 296 295 295 295 295 294 293 293 292 292 292 292 291 290 286 287 287 287 287 290 295 291 292 294 293 294 293 293 292
308 308 309 309 309 310 310 309 309 308 308 307 307 306 306 305 306 307 302 303 305 307 303 299 299 298 298 297 297 297 297 296 296 296 296 296 295 294 293 293 293 292 292 290 290 290 289 288 287 286 287 288 287 287 290 290 293 292 293 293 292 292 292
308 309 309 309 309 309 309 309 309 308 307 306 305 304 304 304 304 303 304 301 301 299 299 299 300 300 299 297 297 297 297 297 298 297 294 293 293 293 293 293 293 293 293 292 291 291 290 289 287 285 285 287 287 288 288 290 291 289 292 291 291 292 292
308 308 308 308 308 309 309 310 308 307 306 305 304 303 303 303 304 301 301 300 300 302 300 299 299 299 299 298 297 296 296 296 295 295 293 293 293 292 292 292 292 292 292 292 292 291 291 290 288 285 285 287 284 284 286 289 288 289 291 291 291 292 291
309 309 307 308 308 309 311 311 309 308 306 305 304 303 303 305 305 305 303 301 302 303 303 301 301 301 299 297 297 296 295 296 296 295 295 294 293 292 293 292 292 292 292 292 291 290 289 288 287 286 285 285 284 284 285 286 288 286 288 290 291 291 291
310 311 309 310 308 310 310 311 310 309 308 307 304 305 307 302 302 301 301 300 299 299 299 300 299 298 299 300 299 298 297 296 296 297 294 294 292 292 292 293 293 292 292 291 291 290 290 289 288 288 286 282 283 285 283 283 285 285 285 288 290 290 291
316 313 313 315 312 310 311 313 311 310 309 307 306 305 303 302 302 302 301 299 299 299 300 298 298 297 296 296 296 297 297 298 295 295 294 293 292 292 291 291 292 291 292 292 291 291 291 291 290 290 289 286 282 279 282 283 284 283 286 287 289 291 290
312 312 312 312 312 312 312 313 312 310 309 307 306 305 303 302 301 300 299 299 298 298 298 299 297 297 296 297 295 295 295 296 297 294 295 294 293 292 291 291 291 292 292 293 293 293 293 292 291 291 289 286 286 282 279 281 281 282 286 286 285 288 290
312 312 312 312 312 313 312 313 312 310 308 307 306 305 302 301 302 304 299 298 298 298 298 297 297 296 296 296 295 295 295 297 297 297 296 294 294 294 294 292 293 293 293 293 293 294 293 292 291 291 290 289 288 283 282 280 280 284 285 287 287 286 288
312 312 313 313 313 313 312 312 311 310 308 307 307 304 301 302 301 299 299 298 298 298 297 297 297 296 295 295 296 295 295 295 295 295 296 295 294 293 291 291 291 291 292 292 293 293 294 293 292 291 290 290 289 287 285 283 280 284 285 285 286 287 287
315 314 313 312 313 313 313 312 310 309 307 308 304 303 302 301 300 299 299 299 298 297 297 297 296 295 295 295 295 294 294 294 294 294 294 295 294 292 291 291 292 291 291 291 292 292 292 293 293 290 290 289 288 287 286 284 282 282 286 285 285 287 288
313 314 314 313 314 314 313 313 310 310 309 306 304 302 301 300 300 300 298 300 298 297 297 297 297 296 296 295 295 294 294 294 293 294 296 294 294 292 292 291 291 291 291 292 293 292 292 291 291 291 289 289 286 287 285 284 281 282 285 288 287 286 288
314 314 313 313 315 314 313 312 311 310 308 306 304 302 301 300 301 299 299 299 297 297 296 297 296 296 296 296 296 295 293 293 293 293 292 293 293 293 292 291 291 292 291 291 290 291 291 291 290 289 287 286 285 285 286 284 283 282 282 286 286 288 287
314 314 314 313 314 314 314 312 312 310 308 306 304 302 301 301 300 299 299 297 297 296 296 296 295 295 295 295 295 295 295 293 293 293 293 292 293 293 292 293 292 292 294 292 291 290 292 291 291 288 288 286 285 285 284 284 283 282 282 284 286 285 286
314 314 314 314 314 314 314 313 313 310 309 306 303 303 301 301 300 300 298 297 296 296 295 295 295 294 294 294 294 294 294 293 293 293 293 292 292 292 292 292 292 292 294 293 292 292 291 290 289 289 288 286 285 284 285 285 285 284 283 282 285 285 286
314 314 315 314 314 314 314 313 312 310 308 306 304 301 302 301 300 299 298 297 296 295 295 295 295 295 294 294 293 294 293 293 293 293 293 292 296 292 292 293 292 292 293 292 292 291 291 290 289 289 288 286 285 285 286 286 285 285 284 283 284 286 286
314 314 315 315 315 314 313 312 311 310 307 305 303 301 300 300 300 298 298 297 296 296 295 294 294 295 294 295 294 294 295 294 293 292 293 295 296 292 293 292 292 292 292 292 292 292 290 290 289 289 288 286 285 285 285 286 286 285 285 284 284 284 286
315 315 315 316 315 314 313 312 311 309 307 305 302 301 300 299 301 299 298 297 296 295 294 294 294 293 293 294 294 294 294 293 293 293 292 293 293 292 292 292 293 292 292 292 292 291 291 290 291 290 289 287 286 286 286 286 286 285 284 284 284 285 284
316 316 315 316 315 314 312 311 310 309 306 303 302 301 299 299 300 299 297 296 296 296 294 292 291 292 292 293 295 294 294 294 293 293 293 292 293 292 292 292 293 292 293 293 293 292 291 291 290 289 288 287 287 287 286 286 286 285 284 284 284 284 284
316 316 317 315 314 313 312 311 310 308 306 304 303 301 300 299 299 297 296 295 294 294 292 292 292 291 292 292 293 294 294 296 293 293 292 292 292 292 291 291 291 291 295 298 297 296 294 295 292 289 288 287 288 288 287 286 286 285 284 284 284 285 284
316 316 315 315 314 313 311 311 309 307 305 303 302 301 300 299 298 296 295 293 293 292 292 292 297 297 297 294 292 292 293 293 294 293 293 292 292 292 291 291 293 298 299 300 300 298 296 294 291 291 290 288 288 288 287 287 286 286 285 284 284 284 283
315 315 316 315 314 312 311 311 309 307 305 302 301 301 299 298 297 295 294 293 292 292 292 292 298 295 295 297 293 292 293 293 293 292 293 292 292 293 292 292 291 294 297 298 300 296 293 292 291 291 291 292 292 291 288 287 287 287 285 285 285 284 284
315 315 315 315 314 312 311 310 308 307 304 302 300 300 298 297 296 295 294 293 292 292 291 295 295 294 294 294 296 293 291 292 293 292 292 292 293 293 293 293 294 292 293 294 295 294 293 291 291 291 291 291 292 292 291 290 288 287 286 285 285 285 285
315 315 315 315 314 311 310 309 308 306 304 302 300 299 298 297 296 295 294 292 291 292 291 295 294 294 293 293 294 293 288 290 291 292 291 292 292 292 293 294 294 294 291 297 297 289 286 287 290 291 291 292 291 291 290 289 290 290 289 287 286 286 285
315 315 315 315 313 311 309 309 308 307 305 302 300 299 298 297 296 294 293 292 292 291 290 295 293 292 291 291 291 293 288 288 289 289 290 290 291 291 292 293 293 294 293 295 296 289 286 285 285 286 287 286 285 288 289 289 289 289 290 289 288 286 287
315 315 315 314 312 311 310 309 308 306 304 301 300 299 297 296 295 296 294 293 292 291 290 294 292 290 290 290 289 292 288 289 288 288 288 289 290 291 292 292 293 293 293 292 292 291 287 286 286 286 287 286 286 286 287 287 288 289 290 290 289 288 288
315 315 314 313 312 311 310 309 308 307 304 302 301 300 299 298 297 296 295 293 292 291 290 293 291 290 290 290 290 291 287 287 287 289 289 290 291 292 292 292 292 292 292 291 293 293 293 290 287 287 287 286 286 287 287 290 291 291 292 292 290 290 290
315 315 314 313 312 311 310 309 308 306 303 300 300 299 298 298 298 296 295 294 292 292 290 292 291 290 290 290 290 288 288 289 289 289 289 290 291 291 291 291 291 292 291 290 292 291 291 293 289 288 287 286 286 286 287 289 290 290 290 290 290 290 291
315 315 314 313 313 312 312 310 308 306 303 301 300 300 299 297 297 297 295 294 293 293 291 291 292 290 289 290 290 285 287 286 286 288 289 290 290 290 290 297 297 292 291 290 291 291 290 292 289 288 286 286 286 286 287 289 288 289 289 290 290 290 289
316 315 314 314 314 313 312 310 307 305 304 303 301 300 300 297 297 296 296 295 298 295 292 291 292 290 290 289 291 286 285 285 285 286 287 289 289 289 289 294 298 298 293 292 290 290 290 292 289 288 287 286 286 286 288 288 287 288 290 291 291 290 289
315 315 315 315 314 314 311 307 304 303 303 302 300 299 299 298 297 296 295 296 296 298 293 291 293 291 290 289 290 289 285 285 285 285 285 287 288 289 289 289 294 294 293 292 290 289 289 290 291 289 288 286 286 286 289 288 290 291 292 291 289 289 287
316 316 316 316 314 312 309 307 303 302 301 300 299 298 298 298 297 296 295 295 294 296 295 292 294 291 290 290 289 290 285 285 285 285 285 289 290 289 289 289 290 293 292 292 291 290 290 290 290 291 289 288 289 290 291 290 290 291 291 291 289 287 287
316 317 316 314 311 309 306 305 303 302 301 300 299 298 297 297 296 296 294 294 294 294 297 299 292 293 291 290 289 290 286 287 287 285 285 286 287 287 287 288 289 290 291 291 291 291 291 291 290 292 292 290 289 289 291 292 291 291 290 288 286 286 285
315 316 315 313 311 306 303 303 303 303 300 300 299 298 297 296 296 295 294 293 294 294 294 298 298 294 292 290 290 289 289 287 287 289 285 285 286 287 287 288 288 291 290 290 290 290 290 290 291 292 290 289 289 289 290 291 291 290 288 287 287 285 285
315 315 313 310 308 305 303 303 303 302 300 300 299 298 296 295 295 294 294 294 293 293 294 293 297 296 294 290 290 289 289 288 287 288 289 286 287 286 285 285 287 287 289 290 290 290 290 290 291 289 289 289 289 289 291 291 289 287 288 286 285 285 284
Wind_Speed
4 3 3 4 3 4 6 5 5 5 6 6 6 6 5 5 5 6 6 6 6 6 5 6 6 5 6 5 6 6 5 5 6 7 7 5 6 3 4 6 7 7 7 7 4 3 2 2 4 3 1 7 3 2 5 7 6 4 5 4 6 7 6
2 1 2 3 5 4 6 4 6 5 5 5 5 5 5 5 5 5 6 7 6 5 5 5 5 6 7 7 7 7 7 7 6 5 7 6 6 4 3 5 5 6 6 6 5 4 4 3 3 5 8 2 1 1 3 4 5 3 4 5 8 7 7
2 3 4 5 5 4 6 5 4 5 5 5 5 5 5 5 6 5 6 7 6 5 4 5 5 6 6 6 6 6 6 8 6 6 7 6 6 6 6 4 5 4 5 5 6 4 4 5 2 4 6 9 8 4 4 8 8 6 5 5 6 5 6
3 4 4 4 5 5 5 4 4 4 4 5 4 3 5 5 5 4 5 6 5 4 5 5 5 5 4 5 5 6 7 7 6 6 7 5 5 5 5 5 5 5 5 5 3 3 3 2 2 2 4 4 5 7 3 6 5 4 2 4 5 4 7
5 4 5 5 5 5 5 5 4 5 4 4 4 4 4 5 5 5 5 6 6 5 5 4 4 4 4 4 5 5 6 5 5 5 6 7 6 5 6 5 5 4 4 4 2 2 3 2 1 2 3 4 3 3 6 6 2 4 2 3 4 4 6
4 5 5 4 5 6 5 5 5 5 4 4 3 4 4 4 4 5 5 6 6 4 4 5 4 4 4 5 5 6 5 6 6 6 6 6 6 7 6 4 4 4 4 2 3 3 2 3 2 4 2 1 3 5 3 3 4 4 1 4 6 5 6
5 4 5 5 5 5 6 6 6 6 6 5 5 4 4 4 3 4 5 6 6 5 4 4 5 4 4 4 5 6 6 5 6 7 7 7 6 6 5 6 5 4 3 3 4 3 3 3 3 4 4 1 1 4 3 3 2 5 3 1 5 5 5
4 4 4 3 5 5 5 6 5 5 6 5 6 5 4 4 5 5 5 6 6 5 4 4 4 5 4 4 4 5 4 4 6 6 6 7 7 7 6 6 4 4 3 3 4 4 3 4 4 3 6 9 7 4 6 3 3 2 6 4 2 4 5
2 3 2 2 4 5 5 6 6 6 5 6 5 5 5 5 5 6 5 6 6 5 4 4 4 4 5 5 4 4 4 2 6 7 5 6 6 7 7 5 5 4 3 3 4 4 4 3 4 3 3 3 3 6 4 4 4 4 0 2 3 2 5
4 4 5 5 5 5 5 5 6 6 6 6 6 5 5 5 5 6 6 5 6 5 5 4 5 5 5 4 4 5 5 3 5 5 5 6 4 5 5 6 6 4 3 3 3 3 4 3 2 2 2 2 1 1 4 4 5 3 2 1 3 3 5
5 5 5 5 3 4 4 5 5 6 7 6 6 5 5 6 5 5 6 5 5 6 5 4 4 5 5 5 4 4 3 4 5 3 3 5 5 4 4 4 4 4 2 3 3 2 3 3 2 1 0 1 2 2 2 3 6 3 4 2 1 4 8
5 5 4 2 3 5 6 6 7 6 6 6 6 6 6 6 5 5 5 6 5 6 5 5 4 4 5 5 4 4 2 3 5 4 3 4 4 4 5 5 3 4 2 3 3 2 2 2 1 1 1 1 2 2 3 3 4 3 2 4 3 4 9
4 4 3 4 5 6 6 7 7 7 8 6 7 7 7 7 6 6 5 6 6 6 6 5 4 5 4 5 5 5 3 4 5 5 4 3 3 4 5 5 4 4 3 2 2 2 1 1 2 0 1 2 2 2 2 3 5 9 2 5 7 8 8
5 5 4 5 6 6 6 6 7 7 7 7 7 8 7 8 7 7 7 6 6 6 6 5 4 5 5 5 3 4 4 4 5 3 4 4 3 4 5 5 4 3 2 3 2 0 1 1 1 0 1 1 2 2 2 3 5 9 6 2 5 7 8
5 4 5 6 6 6 6 6 6 7 8 7 8 8 8 7 7 7 7 6 6 6 6 6 5 5 5 5 4 3 4 4 4 4 4 4 4 3 4 5 4 3 2 2 1 1 2 1 1 1 1 1 2 3 2 3 4 4 10 5 7 7 8
5 5 6 5 6 6 6 6 6 8 8 7 6 7 8 7 7 7 7 6 6 6 6 6 5 5 5 6 6 5 4 5 6 5 4 4 4 4 4 4 4 3 2 2 2 2 2 2 1 2 3 1 2 2 2 3 3 4 7 9 5 8 7
5 6 6 6 7 7 6 6 7 7 7 6 7 6 7 7 6 7 7 7 6 6 6 6 6 5 6 6 6 6 5 5 5 5 5 5 4 5 5 4 4 4 3 3 4 3 2 1 2 2 3 2 2 3 3 3 4 5 4 7 6 7 7
5 6 6 5 7 6 7 7 6 8 7 8 7 7 6 6 7 8 7 8 7 7 7 7 6 6 5 5 6 5 5 5 5 5 5 5 4 5 5 5 4 4 4 4 4 3 3 3 2 2 3 3 2 2 3 3 4 3 5 7 8 6 7
7 7 7 6 7 7 7 7 8 7 8 9 8 7 9 7 7 9 8 8 8 7 7 7 7 7 6 5 5 5 5 5 5 5 5 5 5 5 5 5 4 4 4 5 5 4 3 3 3 3 4 3 2 2 3 4 3 4 5 7 7 8 5
7 7 7 7 6 6 7 7 8 9 8 9 9 9 8 8 6 8 8 7 8 8 7 6 6 6 6 6 6 6 5 5 5 5 5 5 5 5 5 5 5 5 5 6 5 5 3 3 3 4 3 3 3 3 4 4 4 5 5 6 6 5 7
7 8 7 6 6 7 7 7 8 7 8 9 9 10 10 9 8 7 7 8 7 6 7 6 6 6 6 6 6 6 6 6 6 5 5 5 5 5 5 5 5 5 6 6 6 4 3 3 2 3 3 2 2 3 4 4 5 5 5 5 6 8 5
6 6 6 6 6 7 7 7 7 7 8 8 7 9 8 9 8 7 6 6 7 6 7 7 6 7 7 6 6 6 6 6 6 6 5 5 5 5 4 4 4 5 6 8 8 5 5 4 3 3 4 2 3 3 4 4 4 5 5 5 7 6 7
7 6 6 7 7 7 7 7 7 8 8 8 8 7 8 8 8 9 9 7 6 6 6 5 7 10 7 7 7 5 5 5 5 5 6 6 5 5 5 4 4 7 8 9 7 8 6 4 4 4 4 4 4 4 4 5 5 5 5 6 6 7 8
7 7 8 7 6 7 8 7 7 8 8 8 9 8 8 9 9 8 9 9 9 7 6 6 10 10 10 9 6 6 6 5 4 5 5 6 6 6 5 4 4 5 6 3 5 8 6 6 5 6 8 8 7 5 5 5 6 5 5 6 6 6 7
7 8 7 8 7 7 7 7 8 8 8 9 8 8 9 9 9 8 7 8 8 8 7 8 11 11 10 9 8 6 6 6 5 5 5 5 5 4 5 4 4 3 3 5 6 6 5 5 6 7 8 8 9 9 8 6 6 5 5 6 6 7 7
8 8 8 7 6 7 8 8 9 9 11 9 8 10 10 9 9 8 8 9 9 7 7 9 11 12 10 10 9 7 5 5 6 6 5 5 4 4 4 4 5 4 4 9 7 6 5 5 5 7 7 8 9 9 7 7 8 8 5 5 6 8 7
9 10 8 7 7 8 9 11 10 9 7 8 10 9 9 10 9 10 9 9 9 8 8 9 12 12 11 10 9 7 5 6 5 5 5 5 5 5 5 5 5 6 5 5 5 6 5 5 4 4 4 4 5 7 8 9 8 7 6 5 5 7 8
10 9 8 8 8 9 10 9 9 9 9 11 11 11 11 11 9 8 8 8 7 8 7 10 12 12 11 11 9 7 5 4 4 4 4 5 6 6 6 5 6 6 6 5 5 7 6 6 5 4 4 5 5 5 6 6 6 4 4 3 5 7 8
10 9 8 8 9 10 10 10 11 9 8 6 3 3 5 6 8 9 9 8 8 8 7 10 12 12 12 11 10 5 5 5 5 5 5 5 5 5 5 5 5 6 6 6 7 11 9 5 4 4 5 5 5 5 6 6 8 8 7 5 5 6 7
10 9 9 9 10 11 11 11 9 6 7 8 11 12 10 9 9 9 9 9 10 8 7 10 13 13 12 12 8 5 5 4 4 5 6 5 5 5 5 5 5 6 5 6 8 9 8 6 5 5 5 6 5 6 7 5 6 8 9 9 10 11 12
9 10 9 12 13 12 11 8 8 9 12 14 11 8 8 6 6 7 9 10 10 10 8 9 13 13 13 13 9 7 6 5 5 5 6 5 4 5 6 9 7 6 6 7 8 9 7 6 5 5 5 5 6 7 8 6 4 4 7 9 9 9 9
11 11 11 13 12 12 11 9 6 8 9 6 6 8 6 8 8 7 9 9 10 11 8 8 13 13 13 13 9 6 6 5 5 6 5 6 4 4 5 5 9 7 7 7 8 8 7 6 5 5 5 4 6 8 8 6 6 7 7 6 6 6 6
11 11 13 13 11 10 5 6 8 9 6 6 7 7 9 9 10 9 8 8 8 9 8 7 9 14 13 13 12 7 5 5 7 7 5 5 5 5 5 5 6 7 10 10 10 9 8 8 6 5 4 5 6 10 7 5 6 6 6 5 6 5 6
12 12 12 11 6 5 6 7 7 8 8 7 7 8 8 8 8 8 7 8 7 8 7 8 8 13 14 14 13 11 7 8 7 6 6 5 5 6 6 6 5 6 9 10 11 11 9 8 7 5 6 7 8 8 6 6 8 9 5 5 5 5 5
10 10 7 5 7 7 5 7 8 9 9 10 10 8 8 8 8 7 6 7 7 8 8 11 8 11 14 14 14 14 8 9 8 7 6 6 6 6 8 6 6 7 9 10 10 11 11 10 9 6 7 11 13 12 8 6 5 5 4 4 4 4 5
9 6 6 7 7 7 6 7 7 8 8 7 8 10 8 8 7 7 6 6 6 7 7 7 11 9 12 14 15 15 15 10 10 7 7 7 8 8 6 6 6 8 9 10 10 10 10 10 7 7 11 12 12 12 9 5 5 4 3 3 4 4 5
5 5 6 7 7 7 7 7 8 8 9 11 9 8 7 6 7 7 8 7 6 7 6 6 7 10 9 14 15 16 16 16 13 9 8 8 7 7 7 7 7 8 9 9 9 8 8 8 7 10 11 12 11 9 5 5 3 2 3 3 4 4 5
Wind_Direction
155 171 116 102 105 101 81 68 70 60 59 67 79 75 82 89 91 83 85 79 75 68 67 56 56 44 49 39 46 46 53 50 54 78 77 27 72 55 37 53 56 55 48 52 51 90 134 300 315 349 96 355 333 72 38 18 0 360 14 358 15 20 23
144 100 99 93 93 90 89 69 75 67 66 62 64 75 73 79 86 90 86 82 75 69 72 63 56 54 57 61 53 50 52 45 51 62 74 53 52 58 49 39 53 52 46 47 50 51 65 22 296 358 330 318 247 176 7 8 355 355 18 21 18 20 14
96 75 98 98 91 97 95 83 84 76 75 70 61 64 80 79 85 84 83 85 86 82 75 80 74 67 62 65 69 76 67 69 45 59 73 63 56 43 44 51 52 27 41 41 34 26 38 56 10 333 340 337 335 321 354 360 348 356 8 21 13 17 5
145 124 109 95 102 94 104 96 91 92 77 78 74 64 77 83 86 86 93 89 78 80 80 77 70 78 79 85 82 80 76 83 74 75 77 68 71 67 60 60 70 61 71 70 52 38 72 45 349 303 314 314 294 309 337 346 320 345 2 21 16 15 5
158 147 151 156 146 133 134 125 120 101 86 82 81 85 77 80 92 93 96 92 87 85 78 86 76 62 71 82 80 87 89 88 95 91 90 93 84 82 69 69 80 85 77 93 109 89 90 94 49 316 322 312 295 257 301 319 250 353 322 21 21 15 6
163 154 156 158 164 148 149 142 143 135 136 110 111 108 109 115 125 116 103 98 91 84 90 83 73 65 70 78 89 86 93 94 98 98 92 83 90 88 91 75 85 78 75 66 66 89 96 115 76 18 336 344 318 314 314 351 343 329 133 11 7 6 1
170 165 170 168 179 164 164 166 168 165 165 160 153 152 156 142 123 115 112 105 98 92 90 91 87 88 84 82 84 92 95 106 98 95 95 95 85 87 96 84 69 77 78 65 77 74 69 64 36 27 329 286 228 328 301 330 4 351 306 355 357 351 353
172 179 183 176 161 163 174 167 176 167 158 160 155 153 139 137 133 120 113 105 99 89 83 86 83 79 79 82 84 100 90 104 101 102 100 103 98 97 86 98 99 75 80 83 82 71 72 64 69 34 30 2 350 360 341 326 313 214 276 306 324 343 346
177 164 178 183 179 174 176 180 177 173 163 147 145 138 155 150 139 123 102 108 108 103 99 103 104 97 95 97 86 93 101 113 105 99 106 98 101 106 105 109 89 79 80 90 79 78 72 71 67 70 59 73 12 329 329 311 352 303 273 314 323 324 336
187 197 210 212 195 186 181 186 169 165 152 148 146 147 150 146 138 132 126 124 113 112 104 108 112 105 97 99 108 109 110 104 98 119 119 104 114 110 100 100 105 105 90 84 78 79 77 69 67 72 79 65 164 290 330 307 307 294 299 74 336 302 327
202 217 218 236 189 160 167 156 143 150 168 160 149 152 149 149 150 138 134 133 127 118 119 116 114 114 107 97 112 108 135 132 107 105 114 121 125 115 105 98 103 104 108 87 102 103 95 92 81 41 51 231 167 231 257 294 298 232 281 292 236 305 316
216 224 228 195 157 163 165 165 168 163 151 154 151 151 155 152 147 146 143 144 138 126 122 125 120 112 113 118 126 127 153 137 123 123 144 132 137 120 121 113 118 117 144 123 114 101 102 113 92 86 281 197 237 219 237 249 290 278 197 297 294 299 304
211 211 199 167 173 178 173 165 159 162 170 160 161 159 157 154 158 155 160 152 146 133 131 129 129 122 111 125 144 144 174 140 121 135 131 123 139 133 127 131 151 145 159 133 119 116 116 153 139 151 265 253 264 233 215 234 250 274 207 281 292 298 304
214 200 178 185 183 181 168 168 174 168 152 170 162 162 160 161 163 164 158 162 158 152 143 144 150 138 131 132 153 160 161 150 131 139 129 125 134 138 137 143 163 172 160 144 164 195 220 186 159 224 282 257 278 268 244 240 257 284 291 190 296 307 310
212 191 183 187 189 177 173 177 168 159 176 173 167 163 164 163 160 160 160 163 168 160 154 153 157 151 142 144 154 166 167 157 150 143 123 138 152 161 146 149 177 181 192 162 184 222 228 197 214 243 268 281 260 280 234 248 264 273 296 316 317 311 307
203 197 190 189 188 184 183 176 171 173 178 169 168 167 166 163 159 155 161 165 167 169 162 163 166 162 162 165 169 181 181 169 169 176 160 166 167 151 154 167 186 190 182 228 231 247 228 238 223 263 296 297 292 271 266 234 259 280 290 300 305 305 309
195 199 197 196 194 192 184 182 175 180 173 160 167 172 169 161 154 159 164 167 173 169 164 164 168 181 175 174 174 183 182 186 184 188 175 175 166 168 175 183 215 201 200 230 259 268 248 238 270 295 303 314 285 287 276 258 234 260 279 298 304 305 303
210 210 212 200 202 191 187 181 180 178 163 169 172 161 165 166 160 164 173 175 175 178 177 169 172 186 193 187 180 177 185 185 191 189 184 181 175 174 175 193 208 196 195 225 268 264 257 278 295 294 304 306 303 293 295 282 277 249 270 280 289 290 297
217 219 217 213 204 193 186 185 184 176 171 172 172 173 170 175 175 176 176 178 178 180 177 176 179 184 187 183 180 183 182 185 181 182 187 189 176 177 184 200 201 193 189 210 240 251 254 270 292 299 300 301 299 303 298 298 282 283 275 276 286 298 298
216 218 218 215 199 185 188 188 182 180 177 176 171 171 183 179 184 176 176 172 179 178 179 179 182 185 186 182 182 179 182 181 179 180 187 187 187 188 193 197 199 197 205 210 227 233 230 249 264 284 287 293 309 309 308 297 299 297 289 291 289 279 297
218 219 216 207 196 190 186 186 191 181 168 176 177 181 180 183 182 169 167 176 177 171 172 178 184 188 189 188 185 191 187 183 181 187 186 196 199 201 200 202 206 204 209 215 213 218 190 240 235 270 269 278 287 291 289 295 300 298 301 304 302 308 306
224 221 214 204 193 189 189 190 186 180 181 182 182 183 177 175 160 154 163 173 168 171 179 189 186 184 186 197 192 191 193 187 184 187 194 202 212 223 231 222 225 221 218 227 219 199 191 212 231 267 281 254 276 280 286 294 294 299 300 304 304 302 307
223 218 215 210 202 192 188 187 185 185 187 183 178 172 172 171 166 171 165 175 175 178 197 196 198 192 189 186 189 192 183 184 187 187 190 205 223 229 238 240 254 262 266 286 223 180 202 245 255 220 230 230 262 271 280 290 293 294 298 302 304 312 313
221 222 220 211 198 188 190 187 189 188 183 179 176 177 171 167 174 174 175 172 182 193 200 205 202 193 196 194 181 189 191 196 183 181 196 198 212 226 239 245 256 270 277 269 170 182 199 224 236 248 254 256 253 244 252 269 276 281 291 293 296 303 299
221 227 216 215 199 193 186 188 192 189 182 180 183 175 178 183 177 175 179 179 189 195 200 209 196 188 191 193 188 189 192 192 191 195 196 203 216 223 243 260 253 238 233 207 191 195 206 221 234 245 255 262 265 269 259 251 267 279 272 285 294 290 294
224 225 221 212 193 183 191 195 195 189 194 186 169 183 189 177 182 178 180 184 195 200 200 208 190 187 189 191 195 181 191 188 193 205 201 205 208 217 225 241 259 244 231 238 216 193 198 228 241 246 264 277 283 275 271 259 250 245 249 258 271 286 284
224 226 215 199 190 193 195 204 201 194 178 171 184 190 183 185 180 181 189 191 195 197 200 205 191 190 189 190 194 184 186 188 198 204 206 206 208 215 217 220 238 262 236 234 208 194 200 219 228 256 267 270 273 297 305 298 298 275 262 254 265 276 283
223 224 208 197 196 204 206 209 199 193 186 186 186 188 185 187 188 183 189 192 192 199 210 200 193 192 190 189 192 187 179 189 193 209 212 209 215 216 219 219 227 246 253 226 219 201 203 214 215 236 270 278 280 278 281 289 279 270 274 263 263 267 280
220 217 202 198 203 212 212 207 205 195 190 171 141 170 202 183 175 188 191 190 194 209 212 201 194 195 191 189 185 183 183 196 205 213 224 215 220 224 223 219 224 236 242 236 233 217 212 188 197 233 261 276 285 280 272 263 265 268 267 263 260 264 271
217 211 202 200 211 216 214 214 208 172 163 158 187 197 189 184 188 184 185 185 197 210 206 203 197 197 193 185 179 186 187 196 210 222 234 227 224 225 221 218 216 229 236 239 236 221 221 197 211 232 255 275 279 292 287 285 273 264 260 263 270 275 284
216 214 201 210 217 220 219 214 195 171 180 192 193 172 186 173 187 197 188 196 197 199 208 199 195 198 195 187 184 185 191 195 222 232 249 242 232 234 237 241 226 211 225 235 235 228 217 195 217 234 250 274 292 299 296 296 302 263 252 248 255 272 282
218 213 210 218 219 220 216 207 172 173 195 178 160 166 142 171 198 191 204 205 202 203 205 197 195 198 197 191 188 184 183 193 220 240 239 256 241 238 254 256 256 227 212 228 232 229 220 198 216 228 238 267 282 285 276 295 291 306 318 324 316 319 311
213 211 218 223 220 223 185 152 174 178 163 147 149 156 178 191 195 203 199 197 204 204 198 200 194 198 199 196 194 179 178 184 222 235 232 230 265 262 249 258 253 253 230 229 232 233 228 212 213 223 207 242 267 273 282 282 279 283 289 293 290 294 291
213 217 219 223 209 189 179 178 157 157 150 138 159 187 185 190 202 207 200 205 204 206 197 195 201 197 202 200 196 184 184 206 216 218 222 228 225 239 254 245 247 245 238 231 232 237 240 234 228 227 222 236 235 253 283 283 285 293 291 291 297 298 294
215 220 209 175 189 192 163 155 161 156 152 173 182 183 184 195 203 207 203 203 208 209 206 202 188 202 203 203 200 196 190 211 203 199 216 230 230 233 234 240 238 241 238 236 236 240 246 251 244 235 243 244 259 266 266 263 267 271 272 281 288 294 301
213 202 195 190 176 171 161 154 152 149 155 149 179 193 195 196 199 207 207 212 213 211 202 217 197 199 206 207 206 205 208 210 200 199 205 228 227 234 232 230 244 247 241 240 241 242 247 248 246 242 251 259 261 264 266 257 254 258 272 278 284 295 300
196 186 179 165 165 155 155 150 149 157 170 183 184 190 199 193 198 207 214 219 216 213 207 206 215 208 205 208 212 211 213 215 202 206 201 225 227 224 229 228 225 237 240 238 236 238 241 246 253 260 263 265 269 267 251 242 234 251 272 282 281 293 297